Location: Newark
(42.8481°N, 0.4872°E)
Time: 02:59:01
(UTC+00:00)

Transit 2A Rocket - Pass Details

Date: 30 October 2020
Orbit: 588 x 914 km, 66.7° (Epoch: 26 November)

Event Time Altitude Azimuth Distance (km) Brightness Sun altitude
Rises 11:04:15 0° 263° (W) 3,539 8.4 32.5°
Reaches altitude 10° 11:07:47 10° 283° (WNW) 2,580 7.6 32.6°
Maximum altitude 11:11:35 17° 322° (NW) 2,091 7.0 32.7°
Drops below altitude 10° 11:15:17 10° 2° (N) 2,498 7.2 32.8°
Sets 11:18:38 0° 23° (NNE) 3,378 7.9 32.9°
